sat.trackr.live / text

‹ back to catalog

STARLINK-5790

NORAD 56036 · 2023-042BC

PAYLOAD ACTIVE UNKNOWN

§ Identity

Operator
Country
US
Launch date
2023-03-24
Launch site
AFETR
Launch vehicle
Mass (kg)
RCS (m²)

Purposes: comms

External: N2YO · Heavens-Above · Gunter

§ Orbital elements

Epoch: 2026-05-24T20:42:00.476064Z

Period
94.27 min
Inclination
43.0045°
Eccentricity
0.0002219
Mean motion
15.27587636 rev/d
Perigee alt
481.5 km
Apogee alt
484.5 km
Semi-major
6,861.2 km
B*
3.8789e-5
RAAN
335.1479°
Arg perigee
256.6632°
Mean anomaly
103.3972°
Rev number
17,468

§ Raw data

STARLINK-57901 56036U 23042BC  26144.86250551  .00000805  00000+0  38789-4 0  99912 56036  43.0045 335.1479 0002219 256.6632 103.3972 15.27587636174685

JSON: /api/v1/satellites/56036 · /tle

For live sub-satellite position, see the globe view (requires WebGL).

§ Visibility from observer

Set your observer location to see the next 7 days of passes ≥ 10°. The values pass through the URL so the page stays shareable.

No JS? Fill the form by hand. The geolocation button needs JavaScript.